| time (UTC) | temp F | wind direction | speed MPH | gust MPH | rain 1hr in | rain 24hr in | rain mn in | humidity % | barometer mb |
| 20260506163231 | 73 | 150 | 18.0 | 0.0 | 0.00 | 0.00 | 0.00 | 40 | 1004.0 |
| 20260506162338 | 75 | 160 | 16.0 | 0.0 | 0.00 | 0.00 | 0.00 | 36 | |
| 20260506160240 | 75 | 150 | 18.0 | 0.0 | 0.00 | 0.00 | 0.00 | 36 | 1004.0 |
| 20260506153231 | 75 | 140 | 17.0 | 0.0 | 0.00 | 0.00 | 0.00 | 36 | 1005.0 |
| 20260506152154 | 73 | 150 | 20.0 | 0.0 | 0.00 | 0.00 | 0.00 | 40 | |
| 20260506150239 | 73 | 150 | 16.0 | 0.0 | 0.00 | 0.00 | 0.00 | 38 | 1005.0 |
| 20260506143231 | 73 | 140 | 18.0 | 0.0 | 0.00 | 0.00 | 0.00 | 40 | 1005.0 |
| 20260506142122 | 72 | 150 | 18.0 | 0.0 | 0.00 | 0.00 | 0.00 | 43 | |
| 20260506141403 | 75 | 150 | 17.0 | 0.0 | 0.00 | 0.00 | 0.00 | 38 | 1005.0 |
| 20260506140232 | 72 | 150 | 17.0 | 0.0 | 0.00 | 0.00 | 0.00 | 43 | 1006.0 |
| 20260506133231 | 73 | 150 | 17.0 | 0.0 | 0.00 | 0.00 | 0.00 | 43 | 1006.0 |
| 20260506132122 | 72 | 120 | 16.0 | 0.0 | 0.00 | 0.00 | 0.00 | 46 | |
| 20260506130227 | 73 | 120 | 14.0 | 0.0 | 0.00 | 0.00 | 0.00 | 43 | 1006.0 |
| 20260506123223 | 73 | 140 | 15.0 | 0.0 | 0.00 | 0.00 | 0.00 | 40 | 1007.0 |
| 20260506122121 | 72 | 180 | 12.0 | 0.0 | 0.00 | 0.00 | 0.00 | 40 | |
| 20260506120232 | 73 | 180 | 10.0 | 0.0 | 0.00 | 0.00 | 0.00 | 38 | 1007.0 |
| 20260506113223 | 73 | 170 | 10.0 | 0.0 | 0.00 | 0.00 | 0.00 | 40 | 1007.0 |
| 20260506112108 | 72 | 180 | 9.0 | 0.0 | 0.00 | 0.00 | 0.00 | 40 | |
| 20260506110225 | 72 | 190 | 12.0 | 0.0 | 0.00 | 0.00 | 0.00 | 40 | 1007.0 |
| 20260506103223 | 72 | 180 | 8.0 | 0.0 | 0.00 | 0.00 | 0.00 | 43 | 1007.0 |
| 20260506102309 | 72 | 200 | 12.0 | 0.0 | 0.00 | 0.00 | 0.00 | 43 | |
| 20260506100229 | 72 | 180 | 12.0 | 0.0 | 0.00 | 0.00 | 0.00 | 43 | 1008.0 |
| 20260506093224 | 70 | 170 | 9.0 | 0.0 | 0.00 | 0.00 | 0.00 | 46 | 1008.0 |
| 20260506092050 | 70 | 200 | 9.0 | 0.0 | 0.00 | 0.00 | 0.00 | 46 | |
| 20260506090227 | 70 | 200 | 7.0 | 0.0 | 0.00 | 0.00 | 0.00 | 46 | 1008.0 |
| 20260506083223 | 68 | 210 | 9.0 | 0.0 | 0.00 | 0.00 | 0.00 | 52 | 1008.0 |
| 20260506082107 | 66 | 240 | 9.0 | 0.0 | 0.00 | 0.00 | 0.00 | 55 | |
| 20260506080234 | 66 | 240 | 8.0 | 0.0 | 0.00 | 0.00 | 0.00 | 55 | 1008.0 |
| 20260506073223 | 66 | 230 | 8.0 | 0.0 | 0.00 | 0.00 | 0.00 | 55 | 1008.0 |
| 20260506072109 | 64 | 220 | 9.0 | 0.0 | 0.00 | 0.00 | 0.00 | 59 | |
| 20260506070233 | 64 | 220 | 9.0 | 0.0 | 0.00 | 0.00 | 0.00 | 59 | 1008.0 |
| 20260506062140 | 61 | 200 | 5.0 | 0.0 | 0.00 | 0.00 | 0.00 | 63 | |
| 20260506060226 | 61 | 200 | 5.0 | 0.0 | 0.00 | 0.00 | 0.00 | 67 | 1008.0 |
| 20260506050232 | 55 | 110 | 5.0 | 0.0 | 0.00 | 0.00 | 0.00 | 71 | 1008.0 |
| 20260506043217 | 54 | 110 | 6.0 | 0.0 | 0.00 | 0.00 | 0.00 | 71 | 1007.0 |
| 20260506042322 | 54 | 80 | 2.0 | 0.0 | 0.00 | 0.00 | 0.00 | 71 | |
| 20260506040227 | 54 | 0 | 2.0 | 0.0 | 0.00 | 0.00 | 0.00 | 71 | 1007.0 |
| 20260506033304 | 52 | 0 | 3.0 | 0.0 | 0.00 | 0.00 | 0.00 | 76 | 1007.0 |
| 20260506032108 | 55 | 90 | 5.0 | 0.0 | 0.00 | 0.00 | 0.00 | 66 | |
| 20260506030227 | 55 | 90 | 3.0 | 0.0 | 0.00 | 0.00 | 0.00 | 66 | 1006.0 |
| 20260506023216 | 55 | 0 | 0.0 | 0.0 | 0.00 | 0.00 | 0.00 | 66 | 1007.0 |
| 20260506022108 | 55 | 190 | 2.0 | 0.0 | 0.00 | 0.00 | 0.00 | 66 | |
| 20260506020228 | 55 | 140 | 2.0 | 0.0 | 0.00 | 0.00 | 0.00 | 66 | 1006.0 |
| 20260506013217 | 57 | 100 | 7.0 | 0.0 | 0.00 | 0.00 | 0.00 | 62 | 1006.0 |
| 20260506012208 | 57 | 140 | 5.0 | 0.0 | 0.00 | 0.00 | 0.00 | 62 | |
| 20260506010227 | 57 | 110 | 6.0 | 0.0 | 0.00 | 0.00 | 0.00 | 62 | 1006.0 |
| 20260506003223 | 57 | 120 | 6.0 | 0.0 | 0.00 | 0.00 | 0.00 | 62 | 1006.0 |
| 20260506002106 | 59 | 170 | 5.0 | 0.0 | 0.00 | 0.00 | 0.00 | 58 | |
| 20260506000228 | 59 | 130 | 5.0 | 0.0 | 0.00 | 0.00 | 0.00 | 58 | 1006.0 |
| 20260505233216 | 59 | 130 | 8.0 | 0.0 | 0.00 | 0.00 | 0.00 | 58 | 1005.0 |
| 20260505232106 | 61 | 140 | 9.0 | 0.0 | 0.00 | 0.00 | 0.00 | 55 | |
| 20260505230234 | 61 | 120 | 8.0 | 0.0 | 0.00 | 0.00 | 0.00 | 55 | 1005.0 |
| 20260505223216 | 61 | 130 | 8.0 | 0.0 | 0.00 | 0.00 | 0.00 | 55 | 1005.0 |
| 20260505222106 | 61 | 140 | 12.0 | 0.0 | 0.00 | 0.00 | 0.00 | 55 | |
| 20260505220228 | 61 | 130 | 9.0 | 0.0 | 0.00 | 0.00 | 0.00 | 55 | 1005.0 |
| 20260505213216 | 61 | 120 | 9.0 | 0.0 | 0.00 | 0.00 | 0.00 | 51 | 1005.0 |
| 20260505212156 | 61 | 130 | 12.0 | 0.0 | 0.00 | 0.00 | 0.00 | 51 | |
| 20260505210239 | 61 | 110 | 9.0 | 0.0 | 0.00 | 0.00 | 0.00 | 51 | 1006.0 |
| 20260505203224 | 63 | 120 | 10.0 | 0.0 | 0.00 | 0.00 | 0.00 | 48 | 1006.0 |
| 20260505202121 | 63 | 130 | 12.0 | 0.0 | 0.00 | 0.00 | 0.00 | 45 | |
| 20260505200247 | 63 | 120 | 12.0 | 0.0 | 0.00 | 0.00 | 0.00 | 45 | 1006.0 |
| 20260505193224 | 64 | 110 | 10.0 | 0.0 | 0.00 | 0.00 | 0.00 | 42 | 1005.0 |
| 20260505192139 | 64 | 140 | 12.0 | 0.0 | 0.00 | 0.00 | 0.00 | 45 | |
| 20260505190239 | 64 | 130 | 10.0 | 0.0 | 0.00 | 0.00 | 0.00 | 45 | 1006.0 |
| 20260505183224 | 66 | 140 | 14.0 | 0.0 | 0.00 | 0.00 | 0.00 | 42 | 1005.0 |
| 20260505182122 | 68 | 150 | 14.0 | 0.0 | 0.00 | 0.00 | 0.00 | 40 | |
| 20260505180226 | 68 | 150 | 15.0 | 0.0 | 0.00 | 0.00 | 0.00 | 40 | 1005.0 |
| 20260505173231 | 72 | 160 | 18.0 | 30.0 | 0.00 | 0.00 | 0.00 | 35 | 1005.0 |
| 20260505172138 | 73 | 170 | 18.0 | 0.0 | 0.00 | 0.00 | 0.00 | 33 | |
| 20260505170226 | 73 | 160 | 20.0 | 31.0 | 0.00 | 0.00 | 0.00 | 33 | 1005.0 |